Hourly Weather Kostanaj

Today, 9 May, Sunday

Time Temperature Precipitation Wind Pressure Humidity
00:00 +15°C° 0.1 mm 4 mps 746 mmHg 49%
01:00 +14°C° 0.1 mm 3 mps 745 mmHg 55%
02:00 +14°C° 0.2 mm 4 mps 745 mmHg 55%
03:00 +14°C° 0.2 mm 4 mps 745 mmHg 55%
04:00 +14°C° 0.2 mm 4 mps 745 mmHg 55%
05:00 +14°C° 0.5 mm 5 mps 745 mmHg 56%
06:00 +13°C° 0.5 mm 5 mps 745 mmHg 57%
07:00 +13°C° 0.5 mm 6 mps 745 mmHg 58%
08:00 +14°C° 0.1 mm 6 mps 745 mmHg 53%
09:00 +15°C° 0.1 mm 5 mps 745 mmHg 49%
10:00 +17°C° 0.1 mm 5 mps 745 mmHg 45%
11:00 +19°C° 0 mm 6 mps 744 mmHg 42%
12:00 +20°C° 0 mm 8 mps 744 mmHg 40%
13:00 +21°C° 0 mm 9 mps 744 mmHg 38%
14:00 +19°C° 0 mm 9 mps 744 mmHg 44%
15:00 +18°C° 0 mm 8 mps 744 mmHg 49%
16:00 +17°C° 0 mm 8 mps 744 mmHg 55%
17:00 +17°C° 0 mm 8 mps 745 mmHg 58%
18:00 +16°C° 0 mm 8 mps 745 mmHg 61%
19:00 +15°C° 0 mm 7 mps 745 mmHg 64%
20:00 +15°C° 0 mm 7 mps 745 mmHg 62%
21:00 +15°C° 0 mm 8 mps 745 mmHg 61%
22:00 +15°C° 0 mm 8 mps 746 mmHg 60%
23:00 +15°C° 0 mm 8 mps 746 mmHg 58%

Tomorrow, 10 May, Monday

Time Temperature Precipitation Wind Pressure Humidity
00:00 +15°C° 0 mm 8 mps 746 mmHg 56%
01:00 +16°C° 0 mm 8 mps 746 mmHg 54%
02:00 +15°C° 0 mm 7 mps 747 mmHg 56%
03:00 +14°C° 0 mm 7 mps 747 mmHg 57%
04:00 +14°C° 0 mm 6 mps 748 mmHg 59%
05:00 +14°C° 0 mm 6 mps 748 mmHg 59%
06:00 +14°C° 0 mm 6 mps 749 mmHg 59%
07:00 +14°C° 0 mm 6 mps 749 mmHg 58%
08:00 +15°C° 0 mm 6 mps 750 mmHg 54%
09:00 +17°C° 0 mm 6 mps 750 mmHg 50%
10:00 +18°C° 0 mm 7 mps 750 mmHg 45%
11:00 +18°C° 0 mm 7 mps 750 mmHg 42%
12:00 +18°C° 0 mm 7 mps 751 mmHg 38%
13:00 +20°C° 0 mm 7 mps 751 mmHg 35%
14:00 +20°C° 0 mm 6 mps 751 mmHg 33%
15:00 +20°C° 0 mm 6 mps 751 mmHg 32%
16:00 +20°C° 0 mm 6 mps 751 mmHg 30%
17:00 +19°C° 0 mm 5 mps 751 mmHg 33%
18:00 +17°C° 0 mm 5 mps 752 mmHg 37%
19:00 +17°C° 0 mm 4 mps 752 mmHg 40%
20:00 +15°C° 0 mm 4 mps 752 mmHg 42%
21:00 +13°C° 0 mm 4 mps 753 mmHg 43%
22:00 +12°C° 0 mm 3 mps 753 mmHg 45%
23:00 +12°C° 0 mm 3 mps 753 mmHg 45%

Day after tomorrow, 11 May, Tuesday

Time Temperature Precipitation Wind Pressure Humidity
00:00 +11°C° 0 mm 3 mps 754 mmHg 46%
01:00 +10°C° 0 mm 3 mps 754 mmHg 47%
02:00 +10°C° 0 mm 3 mps 754 mmHg 48%
03:00 +9°C° 0 mm 3 mps 754 mmHg 49%
04:00 +9°C° 0 mm 3 mps 755 mmHg 51%
05:00 +10°C° 0 mm 3 mps 755 mmHg 47%
06:00 +12°C° 0 mm 3 mps 755 mmHg 43%
07:00 +14°C° 0 mm 3 mps 756 mmHg 40%
08:00 +16°C° 0 mm 3 mps 756 mmHg 35%
09:00 +17°C° 0 mm 3 mps 756 mmHg 31%
10:00 +19°C° 0 mm 3 mps 756 mmHg 27%
11:00 +20°C° 0 mm 3 mps 756 mmHg 26%
12:00 +20°C° 0 mm 2 mps 756 mmHg 24%
13:00 +21°C° 0 mm 2 mps 756 mmHg 23%
14:00 +21°C° 0 mm 2 mps 756 mmHg 23%
15:00 +21°C° 0 mm 2 mps 756 mmHg 23%
16:00 +23°C° 0 mm 2 mps 756 mmHg 23%
17:00 +21°C° 0 mm 2 mps 756 mmHg 26%
18:00 +20°C° 0 mm 2 mps 756 mmHg 30%
19:00 +18°C° 0 mm 2 mps 756 mmHg 34%
20:00 +18°C° 0 mm 2 mps 756 mmHg 35%
21:00 +17°C° 0 mm 2 mps 756 mmHg 36%
22:00 +16°C° 0 mm 2 mps 756 mmHg 37%
23:00 +16°C° 0 mm 1 mps 756 mmHg 37%

12 May, Wednesday

Time Temperature Precipitation Wind Pressure Humidity
00:00 +16°C° 0 mm 1 mps 756 mmHg 38%
01:00 +14°C° 0 mm 0 mps 757 mmHg 38%
02:00 +14°C° 0 mm 0 mps 757 mmHg 39%
03:00 +14°C° 0 mm 1 mps 757 mmHg 41%
04:00 +14°C° 0 mm 1 mps 757 mmHg 42%
05:00 +15°C° 0 mm 1 mps 757 mmHg 40%
06:00 +18°C° 0 mm 1 mps 757 mmHg 37%
07:00 +18°C° 0 mm 2 mps 757 mmHg 35%
08:00 +20°C° 0 mm 2 mps 757 mmHg 32%
09:00 +21°C° 0 mm 2 mps 757 mmHg 29%
10:00 +23°C° 0 mm 2 mps 757 mmHg 26%
11:00 +24°C° 0 mm 3 mps 757 mmHg 25%
12:00 +25°C° 0 mm 3 mps 756 mmHg 24%
13:00 +25°C° 0 mm 3 mps 756 mmHg 24%
14:00 +25°C° 0 mm 4 mps 756 mmHg 25%
15:00 +25°C° 0 mm 4 mps 756 mmHg 27%
16:00 +25°C° 0 mm 4 mps 756 mmHg 28%
17:00 +22°C° 0 mm 4 mps 756 mmHg 35%
18:00 +21°C° 0 mm 4 mps 756 mmHg 41%
19:00 +20°C° 0 mm 4 mps 756 mmHg 47%
20:00 +19°C° 0 mm 4 mps 756 mmHg 45%
21:00 +17°C° 0 mm 3 mps 756 mmHg 44%
22:00 +16°C° 0 mm 3 mps 756 mmHg 42%
23:00 +16°C° 0 mm 3 mps 756 mmHg 43%

13 May, Thursday

Time Temperature Precipitation Wind Pressure Humidity
00:00 +15°C° 0 mm 2 mps 756 mmHg 44%
01:00 +15°C° 0 mm 2 mps 756 mmHg 45%
02:00 +14°C° 0 mm 2 mps 756 mmHg 47%
03:00 +14°C° 0 mm 2 mps 756 mmHg 49%
04:00 +13°C° 0 mm 2 mps 756 mmHg 52%
05:00 +14°C° 0 mm 3 mps 756 mmHg 50%
06:00 +16°C° 0 mm 3 mps 756 mmHg 48%
07:00 +17°C° 0 mm 4 mps 756 mmHg 46%
08:00 +18°C° 0 mm 4 mps 756 mmHg 44%
09:00 +20°C° 0 mm 5 mps 756 mmHg 43%
10:00 +21°C° 0 mm 5 mps 756 mmHg 41%
11:00 +22°C° 0 mm 5 mps 756 mmHg 39%
12:00 +22°C° 0 mm 6 mps 755 mmHg 38%
13:00 +23°C° 0 mm 6 mps 755 mmHg 36%
14:00 +23°C° 0 mm 6 mps 755 mmHg 36%
15:00 +23°C° 0 mm 6 mps 755 mmHg 35%
16:00 +23°C° 0 mm 5 mps 755 mmHg 35%
17:00 +22°C° 0 mm 5 mps 755 mmHg 39%
18:00 +21°C° 0 mm 4 mps 755 mmHg 44%
19:00 +20°C° 0 mm 3 mps 755 mmHg 48%
20:00 +19°C° 0 mm 2 mps 755 mmHg 50%
21:00 +18°C° 0 mm 2 mps 755 mmHg 52%
22:00 +18°C° 0 mm 1 mps 755 mmHg 54%
23:00 +18°C° 0 mm 1 mps 756 mmHg 54%

14 May, Friday

Time Temperature Precipitation Wind Pressure Humidity
00:00 +18°C° 0 mm 1 mps 756 mmHg 55%
01:00 +16°C° 0 mm 0 mps 756 mmHg 56%
02:00 +16°C° 0 mm 0 mps 756 mmHg 56%
03:00 +16°C° 0 mm 0 mps 756 mmHg 55%
04:00 +16°C° 0 mm 0 mps 756 mmHg 55%
05:00 +17°C° 0 mm 0 mps 757 mmHg 52%
06:00 +18°C° 0 mm 0 mps 757 mmHg 50%
07:00 +19°C° 0 mm 0 mps 757 mmHg 47%
08:00 +22°C° 0 mm 1 mps 757 mmHg 43%
09:00 +24°C° 0 mm 1 mps 757 mmHg 39%
10:00 +25°C° 0 mm 2 mps 757 mmHg 35%
11:00 +26°C° 0 mm 2 mps 757 mmHg 33%
12:00 +27°C° 0 mm 3 mps 757 mmHg 31%
13:00 +28°C° 0 mm 3 mps 756 mmHg 29%
14:00 +28°C° 0 mm 3 mps 756 mmHg 28%
15:00 +28°C° 0 mm 3 mps 756 mmHg 28%
16:00 +28°C° 0 mm 3 mps 756 mmHg 27%
17:00 +27°C° 0 mm 3 mps 756 mmHg 31%
18:00 +26°C° 0 mm 2 mps 756 mmHg 35%
19:00 +25°C° 0 mm 1 mps 756 mmHg 38%
20:00 +24°C° 0 mm 2 mps 756 mmHg 40%
21:00 +23°C° 0 mm 2 mps 756 mmHg 41%
22:00 +21°C° 0 mm 2 mps 756 mmHg 42%
23:00 +20°C° 0 mm 2 mps 755 mmHg 45%
Show more